Terminal Aerodrome Forecast
Issued by NWS Cleveland, OH

Home | Current Version | Previous Version | Graphics & Text | Print | Product List | Glossary On
Versions: 1 2 3 4 5 6 7 8 9 10 11 12 13 14 15 16 17 18 19
000
FTUS41 KCLE 170500
TAFMFD
TAF
KMFD 170524Z 1706/1806 VRB03KT P6SM SKC
      TEMPO 1706/1710 4SM BR
     FM171000 VRB03KT 4SM BR SKC
      TEMPO 1710/1713 1SM BR
     FM171400 27006KT P6SM SKC
     FM180200 26003KT P6SM SKC=

USA.gov is the U.S. government's official web portal to all federal, state and local government web resources and services.